Home > Weather > Durazno > Past weeks

Flag for Uruguay Weather for the Past 2 Weeks in Durazno, Uruguay

Now
55 °F

Overcast.


Feels Like: 52 °F
Forecast: 44 / 60 °F
Wind: 14 mph from South

Location: Carrasco

Current Time: May 3, 2016 at 12:28:40 AM

Latest Report: May 2, 2016 at 11:00 PM


Visibility: N/A

Pressure: 30.24 "Hg

Humidity: 72%

Dew Point: 46 °F

Location of DuraznoLocation

Historic Weather in Durazno — Graph

°F

Durazno Temperature Yesterday

Maximum temperature yesterday: 63 °F (at 1:00 PM)
Minimum temperature yesterday: 46 °F (at 12:00 AM)
Average temperature yesterday: 54 °F

High & Low Weather Summary for the Past Weeks

 TemperatureHumidityPressure
High72 °F (Apr 21, 1:00 PM)100% (Apr 19, 5:00 AM)30.24 "Hg (Apr 19, 5:00 AM)
Low41 °F (Apr 29, 6:00 AM)45% (May 1, 2:00 PM)29.62 "Hg (Apr 19, 4:00 PM)
Average57 °F78%29.99 "Hg
* Reported Apr 17 11:00 PM — May 2 11:00 PM, Durazno, Weather by CustomWeather, © 2016

Note: Actual official high and low records may vary slightly from our data, if they occured in-between our weather recording intervals... More about our weather records

Advertising

Durazno Weather History for the Previous 24 Hours

Scroll right to see more
 ConditionsComfort  
Time TempWeatherWind HumidityBarometerVisibility
11:00 PM
Mon, May 2
55 °FOvercast.14 mph72%30.24 "HgN/A
10:00 PM55 °FOvercast.13 mph77%30.21 "HgN/A
9:00 PM55 °FPassing clouds.10 mph82%30.21 "HgN/A
8:00 PM55 °FPassing clouds.13 mph88%30.18 "HgN/A
7:00 PM57 °FClear.13 mph82%30.18 "Hg10 mi
6:00 PM57 °FClear.7 mph82%30.15 "Hg10 mi
5:00 PM61 °FClear.9 mph63%30.15 "Hg10 mi
4:00 PM61 °FSunny.8 mph63%30.15 "Hg10 mi
3:00 PM61 °FSunny.7 mph63%30.12 "Hg10 mi
2:00 PM63 °FSunny.5 mph68%30.12 "Hg10 mi
1:00 PM63 °FSunny.5 mph68%30.15 "Hg10 mi
12:00 PM61 °FSunny.6 mph77%30.15 "Hg10 mi
11:00 AM57 °FSunny.6 mph82%30.15 "Hg10 mi
10:00 AM52 °FSunny.5 mph88%30.15 "Hg10 mi
9:00 AM50 °FSunny.5 mph82%30.12 "Hg10 mi
8:00 AM50 °FSunny.5 mph76%30.12 "Hg10 mi
7:00 AM48 °FSunny.3 mph87%30.09 "Hg10 mi
6:00 AM46 °FClear.3 mph87%30.09 "Hg10 mi
5:00 AM48 °FClear.3 mph87%30.09 "Hg10 mi
4:00 AM48 °FClear.3 mph82%30.09 "Hg10 mi
3:00 AM48 °FClear.3 mph82%30.09 "Hg10 mi
2:00 AM48 °FClear.3 mph82%30.09 "Hg10 mi
1:00 AM48 °FClear.3 mph87%30.09 "Hg10 mi
12:00 AM46 °FClear.3 mph93%30.09 "Hg10 mi
Weather by CustomWeather, © 2016

See weather overviewHow to use our weather pages